Location: Le Domaine
(47.0333°N, 76.5361°W)
Time: 22:11:43
(UTC-05:00)

S-56A Canister/Altair - Pass Details

Date: 19 November 2019
Orbit: 633 x 2499 km, 38.9° (Epoch: 06 December)

Event Time Altitude Azimuth Distance (km) Brightness Sun altitude
Rises 22:30:05 0° 267° (W) 3,554 - -57.9°
Reaches altitude 10° 22:34:48 10° 235° (SW) 2,282 - -58.4°
Maximum altitude 22:36:22 11° 217° (SW) 2,105 - -58.6°
Drops below altitude 10° 22:37:52 10° 199° (SSW) 2,124 - -58.7°
Sets 22:41:45 0° 163° (SSE) 2,919 - -59.1°
